Torna al catalogo

STARLINK-30151

AttivoComunicazioniVLEO
NORAD 56827·PAYLOAD·🇺🇸 United States

Lanciato Jun 4, 2023 da Cape Canaveral Space Force Station

Loading…

Prossimi Passaggi (prossime 24 ore)

TLE

AggiornatoSource: CelesTrak SupGP

Epoca: Sep 14, 2026, 21:33 UTC

1 56827C 23079E   26257.89840278 -.00043381  00000+0 -15716-2 0  2576
2 56827  43.0004 118.5067 0001457 271.8533 141.5859 15.27593223    18

Traccia STARLINK-30151 in tempo reale con AllMySat

Download on the App Store